Date,TemperatureHighF,TemperatureAvgF,TemperatureLowF,DewpointHighF,DewpointAvgF,DewpointLowF,HumidityHigh,HumidityAvg,HumidityLow,PressureMaxIn,PressureMinIn,WindSpeedMaxMPH,WindSpeedAvgMPH,GustSpeedMaxMPH,PrecipitationSumIn
2013-1-1,32,24,10,29,20,6,91,85,78,30.30,30.13,13,2,13,0.00
2013-1-2,19,10,1,10,4,-3,92,77,58,30.42,30.27,12,2,12,0.00
2013-1-3,29,21,8,24,14,1,82,74,64,30.41,30.32,22,10,23,0.00
2013-1-4,29,22,16,20,16,11,83,76,68,30.45,30.40,26,12,26,0.00
2013-1-5,36,28,15,30,23,12,92,81,67,30.45,30.21,23,10,23,0.07
2013-1-6,36,30,24,31,25,19,89,82,79,30.46,30.10,37,13,37,0.03
2013-1-7,33,25,12,26,20,8,89,81,70,30.57,30.33,27,7,27,0.01
2013-1-8,42,31,18,30,24,14,87,77,62,30.39,30.29,20,7,20,0.06
2013-1-9,45,39,31,36,33,26,87,78,67,30.61,30.24,25,11,25,0.05
2013-1-10,46,36,28,40,30,24,92,79,68,30.61,30.12,24,6,24,0.07
2013-1-11,58,52,46,52,47,40,92,83,71,30.12,29.88,31,12,31,0.64
2013-1-12,63,55,50,55,50,45,92,85,72,30.04,29.75,31,9,31,0.91
2013-1-13,55,39,24,53,36,19,92,89,80,30.30,29.71,36,10,36,1.33
2013-1-14,24,21,18,20,16,13,90,80,75,30.59,30.30,23,6,23,0.00
2013-1-15,30,25,20,22,19,16,92,76,65,30.52,30.20,18,4,18,0.00
2013-1-16,35,29,24,25,22,20,88,77,58,30.21,30.05,20,6,20,0.00
2013-1-17,38,31,23,30,24,16,85,75,61,30.52,30.18,23,6,23,0.00
2013-1-18,37,30,21,26,21,16,82,69,54,30.60,30.21,42,13,42,0.00
2013-1-19,52,44,35,36,31,24,71,60,50,30.22,29.91,35,18,38,0.00
2013-1-20,44,27,22,35,16,10,74,64,56,30.36,29.95,40,16,40,0.00
2013-1-21,22,16,9,14,7,-2,79,68,57,30.40,30.24,33,18,33,0.00
2013-1-22,15,10,5,2,0,-2,74,63,51,30.54,30.39,26,13,28,0.00
2013-1-23,22,16,10,15,6,1,76,63,46,30.49,30.23,28,6,30,0.00
2013-1-24,23,18,10,13,7,3,81,64,46,30.74,30.28,25,4,29,0.00
2013-1-25,26,22,18,19,15,8,85,74,57,30.55,30.15,22,6,22,0.01
2013-1-26,28,20,10,18,14,5,89,76,64,30.57,30.22,15,4,15,0.00
2013-1-27,38,27,16,35,21,11,90,78,70,30.56,30.17,23,6,23,0.01
2013-1-28,50,46,38,48,43,35,93,91,89,30.19,30.03,35,14,35,0.09
2013-1-29,62,56,49,56,52,47,93,88,81,30.06,29.46,42,20,42,0.00
2013-1-30,64,47,28,58,43,23,92,87,79,29.66,29.29,52,18,52,1.08
2013-1-31,28,22,11,23,16,3,87,77,66,30.22,29.66,44,25,44,0.00
2013-2-1,16,11,6,9,3,-1,81,72,65,30.55,30.22,32,15,33,0.00
2013-2-2,27,22,16,23,18,9,88,82,72,30.41,30.10,26,11,26,0.00
2013-2-3,23,18,12,19,13,7,89,80,75,30.22,30.08,28,11,28,0.00
2013-2-4,36,27,19,30,21,13,85,78,68,30.21,29.91,29,5,29,0.01
2013-2-5,34,28,20,31,24,17,89,83,74,30.13,29.93,23,6,23,0.00
2013-2-6,37,32,29,28,24,20,84,73,57,30.36,30.13,19,4,21,0.00
2013-2-7,52,40,30,39,32,26,90,73,53,30.30,29.87,24,4,24,0.18
2013-2-8,40,33,28,38,28,22,91,82,71,30.46,29.88,29,11,29,0.03
2013-2-9,38,30,21,28,23,18,89,76,61,30.53,30.28,18,3,18,0.00
2013-2-10,49,42,32,46,34,23,89,73,63,30.28,29.76,45,12,45,0.02
2013-2-11,50,39,31,46,31,25,89,74,59,30.13,29.74,43,22,43,0.00
2013-2-12,42,32,28,32,26,23,88,78,62,30.23,30.03,22,7,22,0.00
2013-2-13,42,32,26,31,26,22,88,78,60,30.03,29.86,19,3,19,0.00
2013-2-14,47,38,33,38,32,28,88,79,66,30.07,29.85,36,15,36,0.00
2013-2-15,34,30,21,30,25,17,92,81,65,30.27,30.05,25,5,25,0.00
2013-2-16,25,22,18,21,14,8,86,72,56,30.25,30.18,26,10,26,0.00
2013-2-17,31,20,9,15,11,5,85,68,44,30.36,30.25,17,3,17,0.00
2013-2-18,55,41,25,42,28,13,85,62,52,30.26,29.65,56,17,56,0.12
2013-2-19,45,27,21,41,21,12,89,78,66,30.23,29.62,46,26,56,0.09
2013-2-20,24,18,12,15,11,5,79,72,64,30.45,30.23,30,11,32,0.00
2013-2-21,28,25,19,22,18,13,85,76,67,30.47,30.14,26,6,26,0.00
2013-2-22,35,32,26,33,29,22,92,88,81,30.17,29.95,24,10,24,0.22
2013-2-23,33,29,25,28,23,20,86,78,70,30.09,30.02,21,10,21,0.00
2013-2-24,37,29,22,26,22,18,89,75,59,30.26,30.07,16,5,16,0.03
2013-2-25,44,34,24,29,25,20,85,71,53,30.29,29.99,18,5,18,0.04
2013-2-26,40,36,32,38,31,25,92,84,70,29.99,29.47,29,6,29,0.96
2013-2-27,41,35,31,38,32,28,92,88,83,29.77,29.54,28,14,28,0.05
2013-2-28,38,34,31,33,30,28,91,87,79,30.06,29.74,25,11,25,0.03
2013-3-1,34,32,28,30,27,22,92,85,75,30.18,30.04,15,5,15,0.02
2013-3-2,31,28,26,24,20,18,79,72,63,30.20,30.16,23,8,23,0.00
2013-3-3,32,28,23,23,21,19,85,77,63,30.20,30.15,21,7,21,0.00
2013-3-4,39,30,19,28,22,16,96,74,57,30.26,30.09,16,3,16,0.00
2013-3-5,36,33,28,31,29,25,91,85,79,30.10,29.74,22,6,22,0.04
2013-3-6,33,30,27,28,26,24,92,86,78,30.36,29.83,28,11,28,0.10
2013-3-7,36,32,29,29,27,24,89,81,66,30.50,30.35,12,5,12,0.15
2013-3-8,41,32,21,27,23,18,89,72,53,30.58,30.48,12,2,12,0.00
2013-3-9,50,40,30,37,31,24,80,70,57,30.48,30.03,25,7,25,0.00
2013-3-10,63,55,49,43,39,36,63,54,42,30.03,29.80,33,17,38,0.00
2013-3-11,57,46,33,49,41,29,92,83,54,29.93,29.64,39,16,39,0.28
2013-3-12,41,34,31,31,28,24,90,79,62,30.12,29.93,31,17,32,0.00
2013-3-13,32,28,26,29,22,17,87,76,62,30.43,30.10,30,15,30,0.00
2013-3-14,41,31,22,29,22,17,85,70,44,30.45,30.25,17,5,17,0.00
2013-3-15,48,38,30,39,33,27,90,81,66,30.25,29.87,16,4,16,0.02
2013-3-16,44,39,34,39,36,29,91,87,80,30.15,29.68,22,7,22,0.00
2013-3-17,37,33,30,29,25,21,85,74,64,30.28,30.10,22,8,22,0.00
2013-3-18,42,36,32,39,32,26,92,88,77,30.10,29.64,31,8,31,0.38
2013-3-19,38,31,26,30,21,16,83,67,51,30.20,29.91,41,24,42,0.00
2013-3-20,32,27,22,22,17,11,76,66,53,30.19,30.10,34,16,34,0.00
2013-3-21,32,24,10,20,15,4,86,70,51,30.15,30.08,28,8,28,0.00
2013-3-22,41,30,18,25,20,15,87,66,42,30.17,30.09,21,3,21,0.00
2013-3-23,47,36,28,27,23,20,81,61,40,30.19,30.00,14,2,14,0.00
2013-3-24,35,31,28,30,26,24,92,81,69,30.03,29.57,32,9,35,0.08
2013-3-25,33,30,28,31,28,25,92,90,86,30.08,29.60,25,12,25,0.23
2013-3-26,37,33,30,31,28,27,92,83,70,30.33,30.07,22,10,22,0.10
2013-3-27,41,34,26,31,26,22,92,75,57,30.41,30.32,21,8,21,0.00
2013-3-28,46,36,27,32,27,24,92,71,51,30.46,30.39,17,3,17,0.00
2013-3-29,53,40,28,36,30,24,89,70,46,30.42,30.30,13,2,13,0.00
2013-3-30,56,44,28,39,33,24,89,67,43,30.32,29.99,20,5,20,0.00
2013-3-31,59,48,41,45,40,36,92,75,51,29.99,29.80,31,11,31,0.08
2013-4-1,44,38,29,36,25,19,77,61,41,30.25,29.89,33,10,33,0.01
2013-4-2,43,33,24,24,20,16,82,61,36,30.38,30.24,25,6,25,0.00
2013-4-3,47,35,23,24,20,14,80,54,35,30.54,30.38,20,2,20,0.00
2013-4-4,56,42,31,29,23,18,64,47,27,30.44,30.07,14,3,15,0.00
2013-4-5,57,45,33,35,28,23,70,53,31,30.23,30.04,22,6,22,0.00
2013-4-6,66,51,38,41,32,23,63,48,36,30.23,29.85,38,12,38,0.00
2013-4-7,70,62,52,46,42,38,66,50,34,30.01,29.80,35,14,38,0.00
2013-4-8,72,61,48,57,51,39,87,70,57,30.02,29.86,39,12,39,0.00
2013-4-9,80,67,54,60,55,49,87,67,44,30.05,29.89,43,10,43,0.00
2013-4-10,80,68,53,65,59,50,92,75,57,29.93,29.79,35,14,35,0.53
2013-4-11,66,60,52,60,57,49,92,88,79,29.82,29.57,31,10,31,1.12
2013-4-12,51,42,38,49,35,29,91,77,64,29.99,29.61,30,18,31,0.09
2013-4-13,46,41,37,37,34,31,87,76,61,30.10,29.98,34,14,35,0.00
2013-4-14,69,54,39,50,41,33,87,65,44,30.11,29.86,24,6,24,0.00
2013-4-15,67,60,52,56,50,44,79,70,56,30.01,29.88,30,13,31,0.00
2013-4-16,63,53,50,53,48,45,91,84,71,30.27,29.91,27,7,27,0.01
2013-4-17,72,57,47,65,52,43,90,83,75,30.28,29.93,26,6,26,0.00
2013-4-18,74,64,56,65,59,53,92,85,67,29.97,29.59,51,12,51,0.18
2013-4-19,60,43,39,57,37,29,92,82,66,29.98,29.56,40,21,40,0.73
2013-4-20,45,40,34,31,29,26,82,66,51,30.51,29.98,32,12,32,0.02
2013-4-21,54,42,31,33,27,22,72,56,39,30.64,30.46,17,3,17,0.00
2013-4-22,66,52,36,42,35,29,81,54,35,30.46,30.16,17,3,17,0.00
2013-4-23,66,57,49,56,48,38,90,71,54,30.17,29.82,33,9,33,0.36
2013-4-24,58,43,37,54,38,32,91,83,64,30.30,29.82,32,10,32,0.77
2013-4-25,51,44,36,41,34,29,84,69,47,30.46,30.27,35,12,35,0.00
2013-4-26,61,48,33,42,36,29,87,64,44,30.52,30.39,16,4,16,0.00
2013-4-27,67,55,42,50,41,33,84,61,40,30.41,30.07,23,6,23,0.03
2013-4-28,60,56,53,56,53,49,92,90,81,30.07,29.88,15,5,15,0.45
2013-4-29,68,59,55,58,53,51,92,82,64,30.04,29.93,19,6,19,0.01
2013-4-30,78,65,52,63,54,48,86,70,55,30.08,29.97,24,9,24,0.00
2013-5-1,82,70,53,61,55,49,86,61,40,30.18,30.07,17,3,17,0.00
2013-5-2,76,68,60,59,55,52,75,63,50,30.22,30.10,20,5,20,0.00
2013-5-3,75,68,60,60,55,42,78,64,42,30.11,29.95,26,7,27,0.00
2013-5-4,67,62,59,48,44,41,63,54,43,30.03,29.98,23,8,23,0.00
2013-5-5,63,59,55,51,49,46,82,69,55,30.04,29.98,19,4,19,0.01
2013-5-6,68,61,53,55,52,47,83,72,59,30.02,29.96,19,4,19,0.01
2013-5-7,74,65,54,57,54,51,89,69,50,30.05,29.97,17,3,17,0.00
2013-5-8,78,66,54,58,55,51,92,68,44,30.05,29.99,16,2,16,0.04
2013-5-9,78,64,55,60,55,51,92,76,41,30.04,29.92,28,4,28,0.29
2013-5-10,68,61,48,62,57,44,92,86,72,29.96,29.83,23,7,23,0.38
2013-5-11,60,49,43,52,44,36,91,83,70,30.09,29.91,28,7,28,0.00
2013-5-12,54,45,36,37,33,29,86,65,41,30.19,30.08,28,8,28,0.00
2013-5-13,61,50,36,39,34,28,85,57,30,30.25,30.16,25,4,25,0.00
2013-5-14,83,66,47,61,49,36,70,55,43,30.17,29.82,37,13,37,0.00
2013-5-15,85,76,68,64,59,53,78,56,42,29.88,29.80,36,16,36,0.00
2013-5-16,80,71,63,64,61,54,90,71,48,30.00,29.84,23,2,24,0.04
2013-5-17,82,67,60,67,61,57,93,82,51,30.08,29.99,30,2,30,1.05
2013-5-18,78,69,62,66,62,60,91,80,60,30.12,30.00,12,2,12,0.28
2013-5-19,84,73,61,70,64,59,92,76,56,30.02,29.87,16,2,16,0.05
2013-5-20,85,76,70,71,67,64,89,75,59,29.96,29.83,29,10,29,0.00
2013-5-21,84,73,63,68,63,60,92,72,50,29.92,29.78,51,11,51,0.12
2013-5-22,75,68,61,66,62,57,91,80,62,29.81,29.73,33,10,33,0.26
2013-5-23,65,58,49,59,54,45,91,84,75,30.21,29.81,26,10,26,0.03
2013-5-24,65,53,44,45,42,37,89,68,38,30.42,30.20,19,5,21,0.00
2013-5-25,64,54,44,48,42,36,83,64,38,30.45,30.28,11,2,11,0.00
2013-5-26,70,60,46,53,47,41,85,63,44,30.35,30.22,14,2,14,0.00
2013-5-27,76,62,53,66,56,50,92,81,65,30.24,29.93,26,6,26,1.04
2013-5-28,80,72,63,69,64,60,92,78,64,29.99,29.90,37,11,37,0.00
2013-5-29,85,76,67,68,63,59,75,64,47,30.04,29.95,30,10,30,0.00
2013-5-30,86,77,69,71,65,61,80,68,54,30.09,29.96,37,13,37,0.00
2013-5-31,76,72,67,69,66,64,90,82,73,30.03,29.89,32,13,32,0.41
2013-6-1,77,70,64,68,64,61,92,83,71,29.93,29.79,30,9,30,0.80
2013-6-2,69,64,56,62,58,49,87,81,73,30.05,29.81,27,10,27,0.09
2013-6-3,68,57,46,52,46,39,88,69,37,30.15,30.04,18,3,18,0.00
2013-6-4,75,62,48,51,47,43,87,60,35,30.21,30.10,18,2,18,0.00
2013-6-5,80,68,55,59,51,46,72,55,36,30.13,29.91,20,2,20,0.00
2013-6-6,75,65,59,61,54,48,79,68,55,29.92,29.83,13,2,13,0.00
2013-6-7,74,65,57,59,55,53,87,72,53,29.93,29.86,14,3,14,0.00
2013-6-8,78,68,57,61,56,52,85,66,49,30.06,29.92,18,2,18,0.00
2013-6-9,84,72,63,65,60,56,87,69,42,30.06,29.87,23,4,23,0.01
2013-6-10,75,69,63,65,63,59,92,80,62,29.88,29.80,25,9,25,0.40
2013-6-11,84,71,62,69,64,59,93,80,50,29.99,29.88,18,5,18,0.07
2013-6-12,90,79,68,76,70,63,91,75,55,29.94,29.66,31,5,31,0.00
2013-6-13,76,69,60,68,61,52,92,76,49,30.01,29.63,33,8,33,1.33
2013-6-14,78,67,56,63,57,52,90,71,48,30.12,29.98,12,2,12,0.00
2013-6-15,81,70,60,66,61,56,88,73,51,30.14,29.96,20,3,20,0.00
2013-6-16,79,72,66,69,65,62,89,79,67,30.02,29.93,34,9,34,0.09
2013-6-17,86,75,65,71,65,60,93,74,44,30.00,29.90,11,1,11,0.00
2013-6-18,82,74,64,67,62,57,89,68,52,30.03,29.89,20,4,20,0.00
2013-6-19,80,69,59,59,56,54,88,65,43,30.16,30.03,13,2,13,0.00
2013-6-20,87,74,61,65,59,54,81,61,40,30.22,30.14,15,2,15,0.00
2013-6-21,88,78,66,66,62,57,76,60,40,30.22,30.05,22,4,23,0.00
2013-6-22,89,76,70,72,67,63,89,75,51,30.16,30.05,33,5,33,0.03
2013-6-23,88,74,66,73,67,63,92,79,50,30.14,30.04,38,5,38,0.01
2013-6-24,87,77,69,71,67,61,90,74,53,30.15,30.01,29,5,30,0.01
2013-6-25,89,79,69,73,69,63,88,73,53,30.03,29.86,33,9,33,0.03
2013-6-26,86,74,67,75,68,64,91,80,64,29.94,29.75,25,6,25,0.31
2013-6-27,84,75,68,72,68,64,93,81,61,29.81,29.70,29,6,29,0.08
2013-6-28,82,73,64,67,64,58,89,75,50,29.71,29.61,31,7,31,0.13
2013-6-29,72,65,61,65,61,58,93,88,73,29.72,29.60,14,2,14,0.79
2013-6-30,74,67,62,66,62,58,92,84,70,29.92,29.71,21,4,21,1.03
2013-7-1,70,66,63,63,60,57,87,81,75,30.01,29.90,22,5,22,0.01
2013-7-2,76,66,60,68,62,57,92,85,71,30.05,29.98,21,3,21,0.72
2013-7-3,80,70,62,69,64,60,93,81,61,30.13,30.03,22,4,24,0.01
2013-7-4,78,70,62,68,64,60,93,83,65,30.18,30.10,13,0,13,0.00
2013-7-5,81,72,65,70,66,63,93,81,63,30.17,30.08,16,1,16,0.00
2013-7-6,75,70,66,68,66,63,91,86,74,30.14,30.06,15,3,16,0.02
2013-7-7,83,73,64,72,66,62,93,81,60,30.13,30.03,15,4,15,0.00
2013-7-8,86,77,68,74,69,65,90,77,63,30.12,30.02,19,6,21,0.00
2013-7-9,88,80,73,77,72,68,86,77,64,30.06,29.96,22,6,22,0.00
2013-7-10,76,72,70,69,64,61,82,77,74,29.84,29.70,7,4,0,0.10
2013-7-11,78,69,59,62,58,55,86,70,50,29.93,29.84,15,4,0,0.09
2013-7-12,79,68,57,61,58,54,90,71,48,30.00,29.92,9,2,0,0.00
2013-7-13,82,72,60,66,62,57,88,72,53,30.02,29.97,11,2,0,0.00
2013-7-14,89,81,65,75,70,62,89,70,57,30.08,30.02,10,1,14,0.00
2013-7-15,89,80,71,74,71,68,91,74,56,30.17,30.08,9,2,15,0.00
2013-7-16,90,80,69,75,71,66,92,74,53,30.21,30.14,4,0,7,0.00
2013-7-17,90,80,70,75,71,68,93,76,54,30.21,30.06,6,1,12,0.00
2013-7-18,93,81,70,76,72,68,93,75,53,30.09,29.89,7,1,15,0.00
2013-7-19,90,81,73,76,72,69,89,74,54,29.91,29.72,17,8,25,0.00
2013-7-20,78,74,68,71,69,65,92,83,72,29.81,29.69,15,4,21,0.12
2013-7-21,84,74,65,74,68,63,93,81,61,29.85,29.75,4,0,10,0.00
2013-7-22,81,74,68,71,68,65,91,83,67,29.78,29.64,5,1,13,0.15
2013-7-23,84,74,61,73,66,55,93,78,58,29.76,29.61,19,8,26,0.00
2013-7-24,72,63,54,57,54,50,87,72,53,29.92,29.76,9,4,18,0.00
2013-7-25,77,64,51,58,54,48,92,70,47,30.00,29.92,6,1,13,0.00
2013-7-26,82,68,54,64,58,51,91,71,48,29.99,29.82,10,3,21,0.00
2013-7-27,76,68,56,65,59,50,92,74,50,29.82,29.71,19,9,28,0.04
2013-7-28,71,60,47,54,50,44,92,70,47,29.92,29.81,20,8,30,0.02
2013-7-29,75,64,53,58,54,50,91,71,50,30.07,29.92,11,3,18,0.00
2013-7-30,78,67,54,63,59,51,92,77,54,30.09,29.98,10,0,10,0.00
2013-7-31,75,68,64,69,65,61,92,88,80,29.98,29.81,12,2,13,0.21
2013-8-1,79,70,61,66,61,56,93,76,50,29.88,29.81,25,5,28,0.00
2013-8-2,84,68,54,66,60,51,92,75,53,29.87,29.79,32,5,32,0.00
2013-8-3,80,70,61,67,63,53,93,78,54,29.97,29.81,18,2,18,0.67
2013-8-4,76,65,54,60,55,50,87,71,47,30.06,29.96,14,2,16,0.00
2013-8-5,79,67,59,64,59,55,91,78,51,30.01,29.83,14,1,14,0.23
2013-8-6,79,70,61,71,64,58,92,83,72,29.84,29.77,13,1,14,0.00
2013-8-7,84,75,68,74,70,65,93,84,66,29.80,29.72,16,3,17,0.00
2013-8-8,80,73,68,72,69,65,92,88,77,29.83,29.77,13,1,13,1.07
2013-8-9,80,72,68,68,66,64,92,80,59,29.92,29.80,10,1,10,0.10
2013-8-10,84,73,66,69,66,63,92,78,57,29.99,29.92,12,1,12,0.00
2013-8-11,81,72,63,69,64,60,93,79,56,30.00,29.93,11,1,12,0.00
2013-8-12,85,72,61,71,65,59,93,79,57,29.97,29.75,12,1,12,0.00
2013-8-13,72,66,54,65,57,48,92,76,49,29.99,29.74,22,5,23,0.00
2013-8-14,70,58,46,53,48,43,91,72,49,30.10,29.99,16,1,16,0.01
2013-8-15,72,60,46,56,50,44,92,72,48,30.08,30.00,7,0,8,0.00
2013-8-16,74,64,53,59,54,51,92,74,49,30.07,30.01,12,0,12,0.00
2013-8-17,78,66,56,61,56,51,87,71,48,30.11,30.02,14,1,14,0.00
2013-8-18,82,69,56,66,59,53,92,73,44,30.08,29.98,9,0,9,0.00
2013-8-19,85,70,56,67,61,54,92,74,49,30.02,29.94,8,0,8,0.00
2013-8-20,86,72,59,68,63,56,92,74,48,30.04,29.96,7,0,9,0.01
2013-8-21,88,74,62,71,66,60,92,77,51,30.02,29.91,14,1,14,0.00
2013-8-22,80,71,65,71,66,61,91,84,71,29.98,29.88,18,3,19,0.08
2013-8-23,82,69,62,68,63,58,93,82,53,30.04,29.94,12,1,12,0.01
2013-8-24,84,70,55,64,57,51,92,68,37,30.16,30.04,10,0,10,0.00
2013-8-25,88,72,56,68,60,53,92,69,38,30.21,30.09,12,1,12,0.00
2013-8-26,86,74,62,73,65,56,88,75,56,30.12,29.94,19,6,19,0.00
2013-8-27,90,78,68,76,70,65,93,78,56,29.95,29.81,18,6,18,0.00
2013-8-28,87,79,73,75,71,67,89,76,64,29.86,29.76,23,7,23,0.00
2013-8-29,87,76,68,72,68,64,93,79,55,29.93,29.85,12,1,12,0.00
2013-8-30,92,76,62,73,67,60,93,75,48,29.88,29.67,17,2,17,0.00
2013-8-31,86,74,67,72,67,64,91,81,56,29.75,29.65,22,3,24,0.67
2013-9-1,84,73,66,73,68,64,93,85,68,29.70,29.64,16,3,16,0.01
2013-9-2,81,74,66,68,64,60,93,74,51,29.76,29.63,19,5,19,0.00
2013-9-3,79,62,49,60,54,47,92,75,51,29.95,29.72,18,3,19,0.01
2013-9-4,80,65,50,63,56,48,93,76,45,30.04,29.94,14,2,14,0.00
2013-9-5,82,68,56,65,59,49,92,74,52,30.09,30.00,11,1,12,0.01
2013-9-6,84,67,51,60,52,47,87,63,35,30.13,29.97,10,1,10,0.00
2013-9-7,86,71,58,67,60,52,83,70,47,29.97,29.81,19,5,19,0.00
2013-9-8,87,74,64,69,65,61,92,75,52,29.88,29.82,16,1,17,0.00
2013-9-9,93,77,65,73,67,62,92,74,46,29.88,29.77,23,5,24,0.00
2013-9-10,95,82,73,74,69,65,90,69,38,29.96,29.84,23,6,24,0.00
2013-9-11,94,80,70,74,66,61,89,65,38,29.99,29.86,24,6,24,0.00
2013-9-12,80,72,62,69,62,50,92,74,44,29.88,29.73,29,6,30,0.31
2013-9-13,66,57,47,53,47,42,90,69,45,30.01,29.86,21,4,21,0.00
2013-9-14,72,55,39,47,41,35,92,66,31,30.09,29.98,11,0,11,0.00
2013-9-15,78,60,45,56,48,41,89,69,36,30.03,29.89,19,3,19,0.07
2013-9-16,64,58,51,55,53,48,91,82,65,30.19,29.98,16,2,16,0.05
2013-9-17,73,60,47,54,50,44,90,71,47,30.23,30.05,14,2,14,0.01
2013-9-18,83,68,58,64,57,51,86,69,46,30.05,29.89,16,2,16,0.00
2013-9-19,82,70,65,70,66,62,93,86,66,29.94,29.79,19,5,19,1.55
2013-9-20,81,71,66,70,67,63,93,86,67,29.82,29.66,21,8,22,0.62
2013-9-21,70,61,50,64,52,45,93,74,46,29.80,29.65,23,7,23,0.12
2013-9-22,68,55,44,52,45,42,92,72,42,29.92,29.80,14,1,14,0.00
2013-9-23,70,57,44,49,46,41,90,69,43,30.01,29.92,14,2,14,0.00
2013-9-24,74,59,44,52,47,41,91,68,44,29.99,29.81,13,2,13,0.00
2013-9-25,76,62,50,54,49,46,86,66,38,29.83,29.76,14,1,14,0.00
2013-9-26,79,62,48,57,51,45,92,71,42,29.97,29.82,13,1,13,0.01
2013-9-27,80,63,49,56,49,43,89,63,29,30.07,29.97,9,1,9,0.00
2013-9-28,84,65,48,59,53,45,90,66,39,30.05,29.90,21,4,22,0.00
2013-9-29,64,62,56,61,58,54,92,87,74,29.91,29.86,14,4,18,0.56
2013-9-30,76,63,55,62,57,52,94,83,54,29.91,29.80,21,3,21,0.01
2013-10-1,76,65,59,63,60,57,93,84,62,29.94,29.86,20,5,22,0.01
2013-10-2,80,67,60,68,63,58,93,86,64,29.99,29.90,11,1,11,0.01
2013-10-3,82,71,65,67,64,62,92,80,58,29.93,29.82,24,6,24,0.01
2013-10-4,84,72,66,70,66,63,92,80,57,29.92,29.86,21,6,21,0.05
2013-10-5,77,70,65,70,66,63,93,89,78,29.91,29.74,26,6,26,0.75
2013-10-6,65,60,47,63,56,40,93,89,67,29.77,29.61,27,7,27,1.21
2013-10-7,61,50,44,48,44,40,91,80,57,30.05,29.71,27,7,27,0.07
2013-10-8,71,56,43,52,46,41,92,71,41,30.15,30.04,13,2,13,0.01
2013-10-9,74,57,44,52,46,41,89,70,39,30.14,30.04,16,1,16,0.01
2013-10-10,75,58,42,52,46,40,92,69,36,30.08,29.96,10,0,10,0.00
2013-10-11,80,60,44,55,48,41,91,69,37,30.01,29.90,15,0,15,0.00
2013-10-12,79,63,49,57,52,46,92,72,41,29.99,29.91,17,2,17,0.00
2013-10-13,70,61,48,60,47,40,87,64,35,30.25,29.99,17,4,17,0.00
2013-10-14,69,53,40,50,43,36,91,70,40,30.26,30.09,11,1,13,0.00
2013-10-15,66,58,49,60,54,44,92,85,71,30.09,29.78,27,6,27,0.06
2013-10-16,63,55,42,60,48,39,91,77,56,29.88,29.75,24,7,24,0.00
2013-10-17,52,45,39,48,41,36,92,87,74,29.87,29.77,25,5,26,0.08
2013-10-18,64,50,41,49,42,38,91,76,45,29.88,29.78,28,8,29,0.01
2013-10-19,52,44,39,41,38,34,91,79,54,29.85,29.75,27,6,27,0.30
2013-10-20,64,50,40,45,39,35,84,67,46,29.87,29.78,31,10,31,0.00
2013-10-21,60,50,39,47,42,29,86,74,61,29.87,29.77,27,10,27,0.00
2013-10-22,50,38,28,36,30,25,89,74,44,29.93,29.74,20,4,20,0.07
2013-10-23,46,38,33,38,32,29,91,80,53,29.92,29.71,27,7,27,0.28
2013-10-24,42,38,30,34,30,25,84,74,57,30.17,29.91,19,8,20,0.00
2013-10-25,48,36,27,31,26,22,86,69,43,30.32,30.12,23,6,23,0.00
2013-10-26,53,41,33,39,31,26,81,66,56,30.12,29.78,32,10,33,0.00
2013-10-27,56,41,30,36,31,27,90,72,43,30.05,29.98,13,2,20,0.00
2013-10-28,61,43,28,40,32,26,91,69,37,30.25,30.02,9,0,10,0.00
2013-10-29,58,47,36,44,39,33,91,74,53,30.32,30.13,10,3,10,0.00
2013-10-30,63,56,49,61,53,44,93,90,78,30.13,29.86,28,4,28,0.05
2013-10-31,63,61,58,61,58,55,93,90,84,29.87,29.18,40,16,40,1.90
2013-11-1,59,50,45,56,44,41,90,79,69,29.82,29.27,27,13,27,2.01
2013-11-2,52,46,42,43,40,38,90,81,61,30.18,29.81,24,9,24,0.01
2013-11-3,54,43,32,42,36,30,92,79,51,30.42,30.18,15,2,15,0.00
2013-11-4,55,47,40,42,38,34,83,71,56,30.43,30.33,20,7,21,0.00
2013-11-5,57,52,47,48,44,40,89,72,62,30.43,30.20,22,8,22,0.02
2013-11-6,58,53,42,53,46,38,90,78,61,30.20,29.96,36,16,36,0.15
2013-11-7,47,40,32,40,32,28,92,74,48,30.35,30.15,28,11,29,0.00
2013-11-8,50,38,28,34,30,25,89,73,49,30.44,30.23,19,5,20,0.00
2013-11-9,60,49,41,42,35,28,76,59,49,30.24,30.02,33,16,34,0.00
2013-11-10,47,40,31,38,32,26,92,72,55,30.42,30.15,28,10,28,0.00
2013-11-11,50,41,29,39,33,26,90,74,54,30.42,30.14,26,11,26,0.04
2013-11-12,34,29,22,27,22,18,87,78,63,30.72,30.42,20,6,20,0.02
2013-11-13,40,29,19,21,19,16,94,68,43,30.71,30.41,25,8,25,0.01
2013-11-14,54,40,28,25,22,20,74,52,27,30.41,30.13,32,15,35,0.00
2013-11-15,51,44,40,37,28,22,84,54,43,30.16,30.09,31,12,31,0.00
2013-11-16,59,51,42,56,47,37,89,86,80,30.12,29.81,39,15,40,0.00
2013-11-17,64,58,46,60,53,40,92,84,69,29.88,29.41,52,23,55,0.93
2013-11-18,48,42,32,40,34,26,84,74,55,30.28,29.83,36,18,37,0.00
2013-11-19,41,34,26,30,26,22,88,75,61,30.44,30.28,16,2,16,0.00
2013-11-20,47,37,27,34,29,22,85,72,58,30.42,30.25,18,4,18,0.00
2013-11-21,50,47,43,47,41,33,94,83,60,30.34,30.24,19,5,19,0.40
2013-11-22,50,43,31,47,40,28,93,88,80,30.51,30.23,26,8,29,0.16
2013-11-23,31,27,21,28,21,14,88,77,61,30.69,30.47,29,11,29,0.00
2013-11-24,27,20,12,16,13,8,87,74,50,30.80,30.59,16,4,16,0.00
2013-11-25,33,28,20,21,17,14,78,64,51,30.59,30.23,24,9,28,0.00
2013-11-26,35,32,29,28,25,21,84,74,64,30.25,30.02,28,4,28,0.00
2013-11-27,29,24,18,24,18,13,84,77,65,30.37,30.06,24,12,24,0.00
2013-11-28,36,26,19,19,16,13,81,67,46,30.53,30.30,29,7,29,0.00
2013-11-29,38,27,16,24,19,13,87,72,54,30.72,30.52,12,2,12,0.00
2013-11-30,49,36,27,31,26,21,80,67,48,30.51,30.14,22,8,23,0.00
2013-12-1,49,40,34,37,31,26,85,70,61,30.14,29.99,16,6,16,0.00
2013-12-2,45,38,31,36,33,28,90,82,69,29.99,29.82,13,3,13,0.06
2013-12-3,50,43,35,46,40,33,92,89,84,29.86,29.77,22,5,22,0.00
2013-12-4,59,53,44,55,50,40,93,89,84,29.84,29.65,26,9,27,0.01
2013-12-5,58,38,24,54,33,20,89,82,73,30.24,29.70,26,13,27,0.00
2013-12-6,28,25,22,24,22,17,90,86,81,30.48,30.22,16,4,16,0.00
2013-12-7,24,17,6,17,12,2,86,80,68,30.68,30.48,12,2,13,0.00
2013-12-8,29,24,17,27,19,12,91,82,72,30.58,30.01,19,4,19,0.00
2013-12-9,30,25,20,27,20,12,91,81,71,30.27,29.99,29,15,29,0.00
2013-12-10,26,18,8,16,10,2,80,71,56,30.39,30.17,35,12,35,0.00
2013-12-11,26,18,4,21,12,-1,84,79,71,30.59,30.33,19,5,24,0.00
2013-12-12,23,12,-2,8,2,-7,82,66,49,30.63,30.34,23,7,23,0.00
2013-12-13,32,25,16,28,16,5,90,70,58,30.36,30.14,24,6,24,0.00
2013-12-14,35,31,25,32,29,21,92,90,86,30.18,29.75,22,5,22,0.03
2013-12-15,27,21,15,24,16,9,92,81,76,30.17,29.95,36,16,36,0.00
2013-12-16,27,21,15,25,17,12,91,85,78,30.18,30.03,11,2,11,0.00
2013-12-17,28,24,20,25,21,16,91,87,80,30.18,30.04,26,11,26,0.00
2013-12-18,34,25,12,22,17,7,84,71,57,30.30,30.02,35,13,35,0.00
2013-12-19,45,40,33,39,32,22,81,73,62,30.03,29.89,30,15,30,0.51
2013-12-20,57,51,44,54,48,39,93,88,81,29.89,29.74,30,14,30,0.45
2013-12-21,54,41,37,50,39,35,97,91,85,29.84,29.50,22,6,22,2.35
2013-12-22,47,38,32,45,36,28,93,89,86,30.09,29.33,33,14,33,0.09
2013-12-23,32,26,15,30,22,9,92,81,75,30.47,30.09,23,15,23,0.00
2013-12-24,20,13,6,13,8,1,82,78,70,30.64,30.46,28,9,28,0.00
2013-12-25,29,24,18,24,18,12,82,76,69,30.51,30.19,30,10,30,0.00
2013-12-26,36,30,22,27,23,15,87,76,58,30.39,30.17,34,16,34,0.00
2013-12-27,46,36,29,34,28,24,82,72,60,30.40,30.23,22,10,24,0.00
2013-12-28,50,40,33,37,32,29,84,73,60,30.23,29.97,22,11,22,0.00
2013-12-29,43,36,27,35,30,23,90,78,68,30.09,29.81,31,12,31,0.00
2013-12-30,27,21,18,23,15,11,87,80,72,30.34,30.09,22,6,22,0.00
2013-12-31,28,23,18,21,16,12,83,76,65,30.42,30.21,27,11,27,0.00
2014-1-1,34,26,21,27,21,17,92,82,75,30.32,30.08,17,4,17,0.00
2014-1-2,22,16,0,19,12,-6,96,84,76,30.41,29.97,29,9,29,0.00